When you browse on this site, cookies collect data to enhance your experience and personalize the content and advertising you see.
Visit our Privacy Policy to learn more. By continuing to use the site, you agree to this use of cookies and data.
  • In United Kingdom
  • List of Countries
  • For 7 days
  • Water Temperature
  • Satellite Maps
  • Weather Map
  • Weather Widgets
  • user-avatar
    Login

    Hourly Weather Jutiapa

    Today, 21 April, Sunday

    Time Temperature Precipitation Wind Pressure Humidity
    00:00 +19°C° 0 mm 3 mps 675 mmHg 59%
    01:00 +19°C° 0 mm 3 mps 674 mmHg 59%
    02:00 +18°C° 0 mm 3 mps 674 mmHg 60%
    03:00 +18°C° 0 mm 3 mps 673 mmHg 61%
    04:00 +18°C° 0 mm 3 mps 673 mmHg 61%
    05:00 +17°C° 0 mm 2 mps 673 mmHg 60%
    06:00 +17°C° 0 mm 2 mps 673 mmHg 59%
    07:00 +20°C° 0 mm 3 mps 674 mmHg 49%
    08:00 +24°C° 0 mm 3 mps 675 mmHg 38%
    09:00 +27°C° 0 mm 3 mps 676 mmHg 28%
    10:00 +29°C° 0 mm 3 mps 676 mmHg 25%
    11:00 +31°C° 0 mm 3 mps 677 mmHg 22%
    12:00 +34°C° 0 mm 3 mps 677 mmHg 19%
    13:00 +34°C° 0 mm 3 mps 676 mmHg 20%
    14:00 +34°C° 0 mm 3 mps 675 mmHg 20%
    15:00 +34°C° 0 mm 3 mps 675 mmHg 21%
    16:00 +31°C° 0 mm 2 mps 674 mmHg 27%
    17:00 +29°C° 0 mm 2 mps 674 mmHg 33%
    18:00 +27°C° 0 mm 2 mps 674 mmHg 38%
    19:00 +26°C° 0 mm 2 mps 674 mmHg 45%
    20:00 +24°C° 0 mm 2 mps 674 mmHg 52%
    21:00 +23°C° 0 mm 2 mps 675 mmHg 59%
    22:00 +21°C° 0 mm 2 mps 675 mmHg 63%
    23:00 +20°C° 0 mm 2 mps 675 mmHg 67%

    Tomorrow, 22 April, Monday

    Time Temperature Precipitation Wind Pressure Humidity
    00:00 +20°C° 0 mm 2 mps 674 mmHg 71%
    01:00 +19°C° 0 mm 2 mps 674 mmHg 72%
    02:00 +19°C° 0 mm 2 mps 673 mmHg 74%
    03:00 +19°C° 0 mm 2 mps 673 mmHg 76%
    04:00 +19°C° 0 mm 2 mps 673 mmHg 75%
    05:00 +18°C° 0 mm 2 mps 673 mmHg 74%
    06:00 +18°C° 0 mm 2 mps 673 mmHg 73%
    07:00 +21°C° 0 mm 2 mps 674 mmHg 60%
    08:00 +25°C° 0 mm 2 mps 675 mmHg 48%
    09:00 +28°C° 0 mm 1 mps 676 mmHg 35%
    10:00 +31°C° 0 mm 2 mps 676 mmHg 30%
    11:00 +34°C° 0 mm 2 mps 676 mmHg 25%
    12:00 +36°C° 0 mm 2 mps 676 mmHg 20%
    13:00 +36°C° 0 mm 2 mps 675 mmHg 21%
    14:00 +36°C° 0 mm 2 mps 675 mmHg 22%
    15:00 +36°C° 0 mm 2 mps 674 mmHg 22%
    16:00 +32°C° 0 mm 2 mps 674 mmHg 30%
    17:00 +30°C° 0 mm 2 mps 673 mmHg 38%
    18:00 +28°C° 0 mm 2 mps 673 mmHg 46%
    19:00 +27°C° 0 mm 1 mps 673 mmHg 54%
    20:00 +25°C° 0 mm 1 mps 674 mmHg 61%
    21:00 +22°C° 0 mm 0 mps 674 mmHg 69%
    22:00 +23°C° 0 mm 1 mps 674 mmHg 71%
    23:00 +23°C° 0 mm 1 mps 674 mmHg 74%

    Day after tomorrow, 23 April, Tuesday

    Time Temperature Precipitation Wind Pressure Humidity
    00:00 +23°C° 0 mm 1 mps 673 mmHg 77%
    01:00 +22°C° 0 mm 1 mps 673 mmHg 79%
    02:00 +22°C° 0 mm 1 mps 672 mmHg 81%
    03:00 +21°C° 0 mm 1 mps 671 mmHg 83%
    04:00 +21°C° 0 mm 1 mps 672 mmHg 83%
    05:00 +21°C° 0 mm 1 mps 672 mmHg 83%
    06:00 +20°C° 0 mm 1 mps 672 mmHg 84%
    07:00 +23°C° 0 mm 1 mps 673 mmHg 71%
    08:00 +26°C° 0 mm 1 mps 674 mmHg 58%
    09:00 +29°C° 0 mm 1 mps 675 mmHg 45%
    10:00 +31°C° 0 mm 1 mps 675 mmHg 41%
    11:00 +32°C° 0 mm 2 mps 675 mmHg 37%
    12:00 +34°C° 0 mm 2 mps 675 mmHg 34%
    13:00 +34°C° 0.1 mm 2 mps 674 mmHg 36%
    14:00 +32°C° 0.1 mm 2 mps 673 mmHg 38%
    15:00 +32°C° 0.1 mm 2 mps 672 mmHg 40%
    16:00 +30°C° 0.1 mm 2 mps 672 mmHg 47%
    17:00 +29°C° 0.1 mm 2 mps 672 mmHg 54%
    18:00 +27°C° 0.1 mm 2 mps 672 mmHg 61%
    19:00 +26°C° 0.2 mm 2 mps 672 mmHg 68%
    20:00 +25°C° 0.2 mm 1 mps 673 mmHg 74%
    21:00 +22°C° 0.2 mm 0 mps 673 mmHg 81%
    22:00 +23°C° 0 mm 1 mps 673 mmHg 83%
    23:00 +23°C° 0 mm 1 mps 673 mmHg 84%

    24 April, Wednesday

    Time Temperature Precipitation Wind Pressure Humidity
    00:00 +23°C° 0 mm 1 mps 672 mmHg 85%
    01:00 +22°C° 0 mm 1 mps 672 mmHg 86%
    02:00 +22°C° 0 mm 1 mps 671 mmHg 87%
    03:00 +22°C° 0 mm 1 mps 671 mmHg 88%
    04:00 +21°C° 0 mm 1 mps 671 mmHg 88%
    05:00 +21°C° 0 mm 1 mps 671 mmHg 89%
    06:00 +21°C° 0 mm 1 mps 672 mmHg 89%
    07:00 +24°C° 0 mm 1 mps 673 mmHg 76%
    08:00 +26°C° 0 mm 1 mps 674 mmHg 63%
    09:00 +29°C° 0 mm 1 mps 675 mmHg 51%
    10:00 +29°C° 0.1 mm 2 mps 674 mmHg 52%
    11:00 +29°C° 0.1 mm 2 mps 674 mmHg 53%
    12:00 +28°C° 0.1 mm 2 mps 673 mmHg 54%
    13:00 +28°C° 0.3 mm 3 mps 673 mmHg 56%
    14:00 +28°C° 0.3 mm 3 mps 672 mmHg 58%
    15:00 +28°C° 0.3 mm 3 mps 671 mmHg 60%
    16:00 +27°C° 0.2 mm 3 mps 671 mmHg 64%
    17:00 +26°C° 0.2 mm 2 mps 671 mmHg 68%
    18:00 +25°C° 0.2 mm 2 mps 672 mmHg 72%
    19:00 +24°C° 0.1 mm 2 mps 672 mmHg 76%
    20:00 +23°C° 0.1 mm 1 mps 672 mmHg 81%
    21:00 +22°C° 0.1 mm 1 mps 672 mmHg 86%
    22:00 +22°C° 0 mm 1 mps 672 mmHg 87%
    23:00 +20°C° 0 mm 0 mps 672 mmHg 87%

    25 April, Thursday

    Time Temperature Precipitation Wind Pressure Humidity
    00:00 +20°C° 0 mm 0 mps 672 mmHg 88%
    01:00 +19°C° 0 mm 0 mps 671 mmHg 88%
    02:00 +19°C° 0 mm 0 mps 671 mmHg 88%
    03:00 +19°C° 0 mm 0 mps 670 mmHg 88%
    04:00 +19°C° 0 mm 0 mps 671 mmHg 88%
    05:00 +19°C° 0 mm 0 mps 671 mmHg 87%
    06:00 +19°C° 0 mm 0 mps 672 mmHg 87%
    07:00 +23°C° 0 mm 1 mps 673 mmHg 74%
    08:00 +26°C° 0 mm 1 mps 674 mmHg 61%
    09:00 +29°C° 0 mm 2 mps 675 mmHg 48%
    10:00 +29°C° 0 mm 2 mps 674 mmHg 48%
    11:00 +29°C° 0 mm 3 mps 674 mmHg 48%
    12:00 +29°C° 0 mm 3 mps 673 mmHg 48%
    13:00 +29°C° 0 mm 3 mps 673 mmHg 50%
    14:00 +29°C° 0 mm 3 mps 672 mmHg 52%
    15:00 +28°C° 0 mm 3 mps 672 mmHg 53%
    16:00 +27°C° 0 mm 3 mps 672 mmHg 57%
    17:00 +27°C° 0 mm 2 mps 672 mmHg 61%
    18:00 +26°C° 0 mm 2 mps 672 mmHg 65%
    19:00 +25°C° 0 mm 2 mps 672 mmHg 71%
    20:00 +24°C° 0 mm 1 mps 673 mmHg 77%
    21:00 +22°C° 0 mm 1 mps 673 mmHg 83%
    22:00 +22°C° 0 mm 1 mps 673 mmHg 84%
    23:00 +20°C° 0 mm 0 mps 673 mmHg 85%

    26 April, Friday

    Time Temperature Precipitation Wind Pressure Humidity
    00:00 +20°C° 0 mm 0 mps 672 mmHg 87%
    01:00 +20°C° 0.1 mm 0 mps 672 mmHg 87%
    02:00 +20°C° 0.1 mm 0 mps 672 mmHg 86%
    03:00 +20°C° 0.1 mm 0 mps 672 mmHg 86%
    04:00 +20°C° 0.2 mm 0 mps 672 mmHg 86%
    05:00 +20°C° 0.2 mm 0 mps 672 mmHg 85%
    06:00 +20°C° 0.2 mm 0 mps 673 mmHg 84%
    07:00 +23°C° 0.1 mm 0 mps 674 mmHg 73%
    08:00 +28°C° 0.1 mm 1 mps 675 mmHg 61%
    09:00 +30°C° 0.1 mm 1 mps 676 mmHg 50%
    10:00 +31°C° 0.1 mm 1 mps 675 mmHg 49%
    11:00 +31°C° 0.1 mm 1 mps 675 mmHg 47%
    12:00 +31°C° 0.1 mm 1 mps 674 mmHg 46%
    13:00 +31°C° 0.2 mm 1 mps 674 mmHg 47%
    14:00 +31°C° 0.2 mm 2 mps 673 mmHg 49%
    15:00 +30°C° 0.2 mm 2 mps 672 mmHg 50%
    16:00 +29°C° 0.2 mm 2 mps 672 mmHg 57%
    17:00 +28°C° 0.2 mm 2 mps 672 mmHg 64%
    18:00 +26°C° 0.2 mm 2 mps 672 mmHg 70%
    19:00 +25°C° 0.3 mm 1 mps 672 mmHg 74%
    20:00 +25°C° 0.3 mm 1 mps 673 mmHg 78%
    21:00 +24°C° 0.3 mm 1 mps 673 mmHg 82%
    22:00 +22°C° 0.2 mm 0 mps 673 mmHg 82%
    23:00 +21°C° 0.2 mm 0 mps 673 mmHg 82%
    Show more